[[{"header":{"parameterUnit":"m.s-1","parameterCategory":1,"la1":30.2991,"la2":30.254,"lo1":-89.0895,"lo2":-89.0444,"dy":0.0017,"dx":0.0017,"nx":28,"ny":28,"refTime":"2023-08-22T03:00:00:Z","depth":0,"parameterNumber":2,"parameterNumberName":"U-component_of_WINDS"},"data":[0,0,0,0,0,0,0,0,0,0,0,0,0,0,0,0,0,0,0,0,0,0,0,0,0,0,0,0,0,0,0,0,0,0,0,0,0,0,0,0,0,0,0,0,0,0,0,0,0,0,0,0,0,0,0,0,0,0,2.9792,2.9794,0,2.9938,2.9939,2.9941,2.9956,2.9954,2.9953,2.9951,3.0102,3.0107,3.0112,0,0,0,0,0,0,0,0,0,0,0,0,0,2.9527,2.9532,2.9792,2.9794,2.9796,2.9937,2.9939,2.9941,2.9956,2.9954,2.9952,2.9951,3.01,3.0106,3.0113,0,0,0,0,0,0,0,0,0,0,0,0,0,2.9654,2.9534,2.9792,2.982,2.9824,2.9937,2.9939,2.9942,2.9956,2.9954,2.9952,2.995,3.0098,3.0105,3.0113,3.0209,0,0,3.0138,3.0142,0,0,0,0,0,0,0,0,2.9647,2.9664,2.9814,2.9818,2.9823,2.9926,2.9901,3.0031,2.9957,2.9906,2.9951,2.9949,3.0045,3.0057,3.009,3.0216,3.0222,3.0139,3.0144,3.0147,3.015,0,0,0,0,0,0,0,2.9638,2.9658,2.985,2.9816,2.9822,2.9826,2.9841,2.9926,2.9987,2.991,2.9912,2.9929,3.0047,3.0082,3.0093,3.0224,3.0139,3.0146,3.0151,3.0154,3.0434,3.0437,0,0,0,0,0,0,2.9624,2.9651,2.9845,2.9854,2.9728,2.9832,2.985,2.9895,2.9986,2.9997,2.993,2.9929,3.0069,3.0084,3.0099,3.0215,3.0147,3.0155,3.016,3.0432,3.0435,3.0438,0,0,0,0,0,0,2.9618,2.9641,2.9839,2.9753,2.9778,2.9839,2.989,2.9899,2.9934,3.0001,3.0012,2.9955,3.0068,3.0087,3.0181,3.022,3.0159,3.0166,3.0429,3.0433,3.0436,3.0448,0,0,0,0,0,0,2.9611,2.9639,2.9676,2.9753,2.9783,2.9919,2.9893,2.9904,2.9948,2.9947,3.0026,3.0037,3.0068,3.0169,3.0189,3.023,3.0172,3.0425,3.0431,3.0435,3.0444,3.0452,3.0458,0,0,0,0,0,2.9601,2.9674,2.9678,2.9701,2.983,2.9921,2.9938,2.997,2.9951,2.9988,3.0031,3.0035,3.0213,3.0178,3.0201,3.0245,3.0423,3.0429,3.0435,3.0441,3.045,3.0458,0,0,0,0,0,0,2.96,2.9685,2.969,2.979,2.9848,2.9923,2.9971,2.9979,3.0044,3.0041,3.008,3.0097,3.0189,3.0227,3.0187,3.0341,3.0316,3.0327,3.0313,3.0322,3.0329,3.0317,3.0179,0,0,0,0,0,2.9611,2.9678,2.9748,2.983,2.9859,2.991,2.9951,2.9971,3.0033,3.0058,3.0108,3.0168,3.0237,3.0282,3.035,3.045,3.0467,3.0492,3.0499,3.0504,3.0513,3.0567,3.0579,3.0457,3.0457,3.0457,0,0,2.9635,2.969,2.973,2.9831,2.9878,2.9946,2.993,3.0003,3.0054,3.0069,3.016,3.0198,3.0268,3.0365,3.0411,3.04,3.055,3.0512,3.0515,3.0521,3.0574,3.0586,3.0596,3.0461,3.046,3.0459,0,0,2.9713,2.9762,2.9834,2.9882,2.9954,2.9987,3.0004,3.0079,3.0105,3.0196,3.0208,3.027,3.0389,3.0438,3.0478,3.0574,3.058,3.0595,3.0631,3.0684,3.0693,3.0702,3.0735,3.0746,3.0604,3.0604,3.0604,0,2.9734,2.9836,2.987,2.9942,2.9986,3.0002,3.0075,3.0121,3.0211,3.0241,3.0227,3.0376,3.0425,3.0533,3.0556,3.0589,3.0609,3.0586,3.0689,3.0698,3.0707,3.0738,3.0751,3.0605,3.0605,3.0605,3.0605,0,2.9857,2.9928,2.9978,3.0064,3.0114,3.0186,3.0231,3.0277,3.0293,3.0328,3.0421,3.0479,3.0558,3.0586,3.0603,3.0696,3.0687,3.0681,3.0656,3.0719,3.0749,3.0762,3.0607,3.0606,3.0606,3.0606,0,0,2.9938,3.0041,3.0059,3.0097,3.0178,3.0233,3.0307,3.0383,3.0422,3.0484,3.0545,3.0646,3.064,3.0686,3.0709,3.0755,3.0825,3.0743,3.0746,3.0755,3.093,3.0933,3.0947,3.083,3.0833,3.0835,3.0924,0,3.0024,3.0153,3.0186,3.0296,3.0362,3.0378,3.0442,3.0498,3.0532,3.0593,3.0632,3.0701,3.069,3.0717,3.0764,3.0807,3.0861,3.0801,3.0887,3.089,3.0867,3.0963,3.0966,3.1047,3.0936,3.0938,3.094,0,3.0141,3.0204,3.0321,3.0392,3.0421,3.0477,3.0549,3.0608,3.0671,3.0693,3.0744,3.0762,3.0839,3.0811,3.0916,3.0875,3.0912,3.0938,3.0942,3.095,3.0917,3.0972,3.1074,3.1086,3.0959,3.0958,3.0956,0,3.0185,3.03,3.0385,3.0418,3.0503,3.0542,3.0579,3.0641,3.0685,3.0749,3.0777,3.0849,3.0889,3.0944,3.0981,3.0957,3.1083,3.1058,3.1102,3.1101,3.1127,3.1124,3.1235,3.1154,3.1154,3.1153,3.1153,0,3.0277,3.0347,3.0406,3.0457,3.0537,3.0573,3.0651,3.0689,3.0744,3.0803,3.0823,3.0878,3.0924,3.0985,3.1015,3.1097,3.1115,3.1134,3.1141,3.1132,3.1129,3.1156,3.115,3.1157,3.1156,3.1155,3.1155,0,3.0339,3.0382,3.0474,3.0547,3.0567,3.0622,3.0685,3.0736,3.0771,3.0845,3.0865,3.0921,3.0994,3.1036,3.113,3.1149,3.124,3.1245,3.1218,3.122,3.1261,3.1256,3.1392,3.1411,3.1318,3.1319,3.132,0,3.0394,3.0448,3.0527,3.0567,3.0605,3.0671,3.0715,3.0754,3.08,3.0876,3.0917,3.0992,3.1053,3.117,3.1219,3.129,3.1295,3.1338,3.1306,3.1295,3.1294,3.129,3.1295,3.1343,3.1344,3.1344,3.1345,0,3.0486,3.0504,3.0567,3.0637,3.069,3.0747,3.0804,3.0837,3.0885,3.0935,3.101,3.1057,3.1152,3.1225,3.13,3.1339,3.135,3.1355,3.1368,3.1358,3.134,3.1349,3.1231,3.1351,3.135,3.135,3.135,3.1349,3.0545,3.0593,3.0656,3.0725,3.0772,3.0825,3.0876,3.0917,3.098,3.1059,3.1078,3.1157,3.1219,3.1321,3.1361,3.1423,3.1416,3.1436,3.1441,3.1445,3.1445,3.1331,3.1437,3.1437,3.1437,3.1437,3.1437,0,3.0636,3.0677,3.0741,3.0819,3.0874,3.0879,3.0943,3.0988,3.1056,3.1113,3.1173,3.1259,3.133,3.1384,3.1457,3.1496,3.1503,3.1514,3.151,3.1519,3.1448,3.1428,3.1507,3.1507,3.1507,3.1507,3.1507,3.1507,3.069,3.0772,3.0797,3.0902,3.0943,3.1019,3.1055,3.1103,3.1149,3.1243,3.1302,3.1337,3.1393,3.1469,3.1535,3.1549,3.1574,3.1584,3.1599,3.1532,3.1524,3.1517,3.1498,3.159,3.159,3.1664,3.1664,3.1665]},{"header":{"parameterUnit":"m.s-1","parameterCategory":1,"la1":30.2991,"la2":30.254,"lo1":-89.0895,"lo2":-89.0444,"dy":0.0017,"dx":0.0017,"nx":28,"ny":28,"refTime":"2023-08-22T03:00:00:Z","depth":0,"parameterNumber":3,"parameterNumberName":"V-component_of_WINDS"},"data":[0,0,0,0,0,0,0,0,0,0,0,0,0,0,0,0,0,0,0,0,0,0,0,0,0,0,0,0,0,0,0,0,0,0,0,0,0,0,0,0,0,0,0,0,0,0,0,0,0,0,0,0,0,0,0,0,0,0,1.8208,1.8208,0,1.8194,1.8194,1.8194,1.8156,1.8156,1.8155,1.8154,1.814,1.814,1.8141,0,0,0,0,0,0,0,0,0,0,0,0,0,1.8202,1.8202,1.8208,1.8208,1.8208,1.8194,1.8194,1.8194,1.8156,1.8155,1.8154,1.8154,1.814,1.814,1.8141,0,0,0,0,0,0,0,0,0,0,0,0,0,1.8198,1.8202,1.8208,1.8188,1.8186,1.8194,1.8194,1.8194,1.8157,1.8155,1.8154,1.8153,1.814,1.814,1.8141,1.8169,0,0,1.8142,1.8143,0,0,0,0,0,0,0,0,1.8198,1.8198,1.8191,1.8189,1.8187,1.8176,1.8187,1.8185,1.8157,1.8168,1.8154,1.8153,1.8153,1.8152,1.8152,1.8168,1.8167,1.8142,1.8143,1.8143,1.8143,0,0,0,0,0,0,0,1.8199,1.8199,1.8203,1.8191,1.8188,1.8179,1.8177,1.8186,1.8167,1.8167,1.8164,1.8163,1.8151,1.8152,1.8152,1.8167,1.8142,1.8143,1.8143,1.8144,1.8204,1.8205,0,0,0,0,0,0,1.8202,1.8199,1.8203,1.8202,1.819,1.818,1.8178,1.8181,1.8167,1.8164,1.8164,1.8161,1.8151,1.8151,1.8151,1.8182,1.8143,1.8144,1.8144,1.8203,1.8204,1.8205,0,0,0,0,0,0,1.8202,1.8203,1.8204,1.82,1.8199,1.8181,1.8185,1.8181,1.8181,1.8165,1.8161,1.8168,1.815,1.815,1.8164,1.8181,1.8144,1.8144,1.8201,1.8203,1.8205,1.8246,0,0,0,0,0,0,1.8202,1.8203,1.8214,1.8201,1.82,1.8218,1.8186,1.8182,1.8182,1.8179,1.8168,1.8165,1.8149,1.8164,1.8165,1.8181,1.8145,1.8199,1.8202,1.8204,1.8243,1.8249,1.8254,0,0,0,0,0,1.8202,1.8226,1.8214,1.8215,1.8213,1.8219,1.8218,1.82,1.8184,1.8194,1.8183,1.8165,1.8179,1.8165,1.8166,1.8183,1.8198,1.8201,1.8204,1.824,1.8247,1.8254,0,0,0,0,0,0,1.8242,1.8224,1.8211,1.8231,1.8227,1.8212,1.8225,1.8209,1.8209,1.8206,1.8183,1.8181,1.8198,1.8192,1.8177,1.8209,1.8186,1.8189,1.8213,1.8219,1.8225,1.8226,1.8145,0,0,0,0,0,1.8253,1.8259,1.8243,1.8263,1.8261,1.8244,1.8245,1.8232,1.8226,1.8224,1.8215,1.821,1.8213,1.8216,1.8218,1.8241,1.8238,1.8253,1.8259,1.8264,1.8267,1.8278,1.8285,1.8215,1.8215,1.8215,0,0,1.8276,1.8267,1.8272,1.827,1.8265,1.8272,1.8242,1.8251,1.8256,1.8226,1.8238,1.8231,1.8224,1.8243,1.825,1.8238,1.8285,1.8267,1.8271,1.8272,1.8282,1.8288,1.8294,1.8217,1.8216,1.8216,0,0,1.8322,1.8316,1.8331,1.8326,1.8319,1.8307,1.831,1.8298,1.8292,1.8304,1.8282,1.8287,1.8293,1.8289,1.8288,1.8331,1.8314,1.8332,1.8361,1.8373,1.8378,1.8383,1.8398,1.8404,1.8335,1.8335,1.8335,0,1.8352,1.8361,1.8341,1.8351,1.8351,1.8323,1.8338,1.8335,1.8328,1.8329,1.8315,1.8322,1.8315,1.8332,1.8343,1.8343,1.8346,1.8334,1.8379,1.8383,1.8388,1.8402,1.8408,1.8338,1.8337,1.8337,1.8337,0,1.8398,1.8405,1.8418,1.8412,1.8413,1.8426,1.8408,1.8411,1.8397,1.8386,1.8399,1.839,1.8389,1.8392,1.8379,1.8407,1.84,1.8383,1.8359,1.8397,1.841,1.8415,1.8341,1.834,1.8339,1.8339,0,0,1.8469,1.8451,1.8457,1.8453,1.8443,1.8447,1.8458,1.8458,1.8461,1.8457,1.8466,1.8471,1.8455,1.8454,1.844,1.8449,1.8484,1.8431,1.843,1.8441,1.8514,1.8527,1.8534,1.8472,1.8473,1.8474,1.8514,0,1.8512,1.853,1.8512,1.8534,1.8539,1.8513,1.8522,1.8517,1.8507,1.851,1.8499,1.8503,1.8482,1.848,1.8489,1.8478,1.8498,1.8475,1.848,1.848,1.8482,1.854,1.8554,1.8593,1.8519,1.852,1.8521,0,1.8565,1.8564,1.8586,1.8573,1.8574,1.8583,1.8581,1.8584,1.8577,1.8569,1.8567,1.855,1.8559,1.8535,1.8548,1.8532,1.8533,1.8528,1.8529,1.8529,1.8503,1.8542,1.8605,1.8611,1.8529,1.8528,1.8527,0,1.8615,1.8618,1.8632,1.863,1.8615,1.8622,1.8616,1.8607,1.8608,1.8605,1.8605,1.8604,1.8604,1.8603,1.8586,1.857,1.8601,1.8576,1.8594,1.8595,1.8602,1.8602,1.8667,1.8603,1.8603,1.8602,1.8602,0,1.8665,1.868,1.8654,1.8662,1.8677,1.8656,1.8672,1.8663,1.8655,1.8661,1.8638,1.8644,1.8621,1.8624,1.8611,1.8623,1.8623,1.8617,1.8613,1.8619,1.862,1.8619,1.8616,1.8604,1.8604,1.8603,1.8603,0,1.8724,1.8707,1.872,1.8704,1.8701,1.8713,1.8699,1.8706,1.8694,1.8702,1.8703,1.8684,1.8687,1.8669,1.8669,1.866,1.8679,1.867,1.8681,1.8679,1.8698,1.8697,1.8765,1.8773,1.8704,1.8705,1.8705,0,1.8757,1.8767,1.8753,1.8755,1.875,1.8754,1.8754,1.8733,1.8734,1.8726,1.8734,1.8735,1.8735,1.874,1.8727,1.8726,1.8717,1.8741,1.8717,1.8723,1.8718,1.8718,1.8718,1.8747,1.8748,1.8748,1.8749,0,1.8818,1.8809,1.881,1.8808,1.8809,1.8806,1.8802,1.8805,1.8782,1.8785,1.8787,1.8787,1.8786,1.8787,1.8784,1.8777,1.8759,1.8756,1.8761,1.8767,1.8773,1.877,1.8695,1.8755,1.8754,1.8754,1.8754,1.8753,1.8864,1.8872,1.8863,1.8865,1.886,1.8856,1.8862,1.885,1.8852,1.8849,1.8837,1.8841,1.8833,1.8826,1.8822,1.8825,1.8813,1.882,1.8821,1.8823,1.8827,1.8772,1.8824,1.8824,1.8824,1.8824,1.8823,0,1.8924,1.8917,1.8918,1.8913,1.8915,1.8897,1.8891,1.8894,1.8898,1.8892,1.8891,1.8894,1.8894,1.8881,1.8879,1.8885,1.8876,1.8885,1.8885,1.8883,1.8837,1.8834,1.8892,1.8892,1.8892,1.8892,1.8892,1.8892,1.8955,1.8967,1.8957,1.8966,1.8958,1.8963,1.8961,1.8957,1.8952,1.8956,1.8956,1.8947,1.8937,1.8935,1.8935,1.893,1.8931,1.8943,1.8936,1.8893,1.8887,1.888,1.8877,1.8943,1.8943,1.8982,1.8982,1.8982]}]]